TimeEST,TemperatureF,Dew PointF,Humidity,Sea Level PressureIn,VisibilityMPH,Wind Direction,Wind SpeedMPH,Gust SpeedMPH,PrecipitationIn,Events,Conditions,WindDirDegrees,DateUTC
12:53 AM,39.0,21.9,50,30.22,10.0,West,9.2,-,N/A,,Clear,260,2012-01-02 05:53:00
1:53 AM,37.0,19.9,50,30.22,10.0,West,11.5,-,N/A,,Clear,270,2012-01-02 06:53:00
2:53 AM,37.0,18.0,46,30.22,10.0,West,15.0,23.0,N/A,,Partly Cloudy,270,2012-01-02 07:53:00
3:53 AM,36.0,14.0,41,30.21,10.0,WNW,6.9,-,N/A,,Clear,290,2012-01-02 08:53:00
4:53 AM,34.0,14.0,44,30.20,10.0,West,11.5,-,N/A,,Clear,260,2012-01-02 09:53:00
5:53 AM,33.1,12.9,43,30.21,10.0,West,11.5,-,N/A,,Clear,270,2012-01-02 10:53:00
6:53 AM,32.0,12.9,45,30.21,10.0,West,11.5,-,N/A,,Clear,270,2012-01-02 11:53:00
7:53 AM,30.9,14.0,50,30.21,10.0,West,5.8,-,N/A,,Clear,260,2012-01-02 12:53:00
8:53 AM,33.1,15.1,48,30.22,10.0,West,9.2,-,N/A,,Partly Cloudy,270,2012-01-02 13:53:00
9:53 AM,35.1,15.1,44,30.22,10.0,West,12.7,21.9,N/A,,Scattered Clouds,260,2012-01-02 14:53:00
10:53 AM,36.0,15.1,43,30.21,10.0,West,17.3,20.7,N/A,,Scattered Clouds,270,2012-01-02 15:53:00
11:53 AM,37.9,16.0,41,30.17,10.0,WSW,18.4,-,N/A,,Scattered Clouds,250,2012-01-02 16:53:00
12:53 PM,37.0,12.9,37,30.15,10.0,West,17.3,27.6,N/A,,Scattered Clouds,260,2012-01-02 17:53:00
1:53 PM,37.9,12.9,36,30.13,10.0,WNW,19.6,27.6,0.00,Rain,Light Rain,300,2012-01-02 18:53:00
2:53 PM,35.1,12.0,39,30.13,10.0,WNW,12.7,27.6,N/A,,Mostly Cloudy,300,2012-01-02 19:53:00
3:53 PM,34.0,10.9,38,30.15,10.0,WNW,17.3,25.3,N/A,,Overcast,300,2012-01-02 20:53:00
4:53 PM,30.9,15.1,52,30.19,10.0,WNW,15.0,24.2,N/A,,Overcast,290,2012-01-02 21:53:00
5:53 PM,28.9,15.1,56,30.21,10.0,West,8.1,-,N/A,,Scattered Clouds,280,2012-01-02 22:53:00
6:53 PM,27.0,17.1,66,30.24,10.0,NW,5.8,-,N/A,,Mostly Cloudy,310,2012-01-02 23:53:00
7:20 PM,26.6,17.6,69,30.23,1.8,WNW,18.4,28.8,0.00,Snow,Light Snow,300,2012-01-03 00:20:00
7:26 PM,26.6,19.4,74,30.22,2.5,WNW,10.4,27.6,0.00,Snow,Light Snow,300,2012-01-03 00:26:00
7:30 PM,26.6,19.4,74,30.22,3.0,WNW,10.4,-,0.00,Snow,Light Snow,290,2012-01-03 00:30:00
7:40 PM,26.6,17.6,69,30.22,9.0,WNW,10.4,-,0.00,,Mostly Cloudy,290,2012-01-03 00:40:00
7:53 PM,26.1,16.0,66,30.25,10.0,WNW,6.9,-,0.00,,Scattered Clouds,290,2012-01-03 00:53:00
8:53 PM,26.1,10.9,53,30.26,10.0,NNW,11.5,23.0,N/A,,Scattered Clouds,340,2012-01-03 01:53:00
9:53 PM,26.1,10.0,51,30.27,10.0,NW,9.2,-,N/A,,Mostly Cloudy,320,2012-01-03 02:53:00
10:53 PM,25.0,12.0,58,30.28,10.0,NNW,9.2,21.9,N/A,,Mostly Cloudy,330,2012-01-03 03:53:00
11:53 PM,24.1,8.1,51,30.29,10.0,NW,10.4,-,N/A,,Mostly Cloudy,320,2012-01-03 04:53:00